CW3157 Weather Reports


Display with metric or nautical units.
time (UTC)temp
F
wind
direction
speed
MPH
gust
MPH
rain 1hr
in
rain 24hr
in
rain mn
in
humidity
%
barometer
mb
20260504173313 70 225 4.0 14.0 0.00 0.00 0.00 35 1011.2
20260504172813 70 299 3.0 13.0 0.00 0.00 0.00 37 1011.3
20260504171812 70 338 9.0 15.0 0.00 0.00 0.00 39 1011.5
20260504171313 69 269 9.0 15.0 0.00 0.00 0.00 34 1011.6
20260504170812 69 237 15.0 15.0 0.00 0.00 0.00 40 1011.6
20260504170313 69 321 9.0 14.0 0.00 0.00 0.00 38 1011.8
20260504160313 68 189 6.0 12.0 0.00 0.00 0.00 38 1012.4
20260504150812 65 236 1.0 11.0 0.00 0.00 0.00 32 1012.8
20260504150313 65 211 3.0 11.0 0.00 0.00 0.00 35 1012.8
20260504141313 63 344 4.0 8.0 0.00 0.00 0.00 40 1013.1
20260504140813 63 283 7.0 9.0 0.00 0.00 0.00 43 1013.1
20260504140313 62 271 2.0 9.0 0.00 0.00 0.00 40 1013.1
20260504130812 56 253 0.0 9.0 0.00 0.00 0.00 52 1013.6
20260504130313 56 290 2.0 9.0 0.00 0.00 0.00 50 1013.6
20260504120312 53 199 3.0 8.0 0.00 0.00 0.00 49 1013.6
20260504110312 42 70 1.0 2.0 0.00 0.00 0.00 73 1013.7
20260504100312 38 296 1.0 4.0 0.00 0.00 0.00 82 1013.5
20260504081812 39 275 2.0 4.0 0.00 0.00 0.00 77 1013.8
20260504081312 39 275 1.0 3.0 0.00 0.00 0.00 77 1013.7
20260504080812 39 275 2.0 4.0 0.00 0.00 0.00 76 1013.7
20260504080312 39 275 3.0 4.0 0.00 0.00 0.00 77 1013.7
20260504070312 40 263 0.0 5.0 0.00 0.00 0.00 73 1013.8
20260504050312 41 273 2.0 3.0 0.00 0.00 0.00 71 1013.8
20260504045812 41 273 2.0 4.0 0.00 0.00 0.00 69 1013.8
20260504045312 42 273 1.0 4.0 0.00 0.00 0.00 68 1013.6
20260504044812 42 273 1.0 3.0 0.00 0.00 0.00 68 1013.6
20260504044312 41 273 1.0 6.0 0.00 0.00 0.00 71 1013.6
20260504043812 42 273 1.0 6.0 0.00 0.00 0.00 70 1013.6
20260504043312 42 275 0.0 4.0 0.00 0.00 0.00 71 1013.6
20260504042812 41 274 0.0 4.0 0.00 0.00 0.00 72 1013.6
20260504042312 41 286 0.0 3.0 0.00 0.00 0.00 70 1013.6
20260504041812 42 286 3.0 3.0 0.00 0.00 0.00 70 1013.5
20260504041312 41 286 1.0 2.0 0.00 0.00 0.00 72 1013.4
20260504040812 41 286 1.0 3.0 0.00 0.00 0.00 71 1013.4
20260504040312 42 286 1.0 3.0 0.00 0.00 0.00 71 1013.3
20260504035812 42 286 1.0 3.0 0.00 0.00 0.00 69 1013.3
20260504034312 41 286 3.0 4.0 0.00 0.00 0.00 68 1013.1
20260504033312 42 261 1.0 3.0 0.00 0.00 0.00 68 1013.0
20260504032812 42 261 1.0 3.0 0.00 0.00 0.00 68 1013.0
20260504032312 42 257 2.0 3.0 0.00 0.00 0.00 68 1013.0
20260504031812 42 257 2.0 3.0 0.00 0.00 0.00 68 1013.0
20260504031312 42 257 3.0 4.0 0.00 0.00 0.00 68 1013.0
20260504030812 42 257 2.0 4.0 0.00 0.00 0.00 67 1012.9
20260504025812 43 257 1.0 3.0 0.00 0.00 0.00 68 1013.0
20260504025312 43 257 1.0 3.0 0.00 0.00 0.00 68 1012.8
20260504024812 42 257 1.0 3.0 0.00 0.00 0.00 70 1012.9
20260504024312 42 257 1.0 2.0 0.00 0.00 0.00 69 1012.9
20260504023812 43 257 1.0 2.0 0.00 0.00 0.00 68 1012.9
20260504023312 43 257 1.0 2.0 0.00 0.00 0.00 68 1012.9
20260504022812 43 257 0.0 2.0 0.00 0.00 0.00 68 1012.9
20260504022312 43 257 1.0 2.0 0.00 0.00 0.00 68 1012.9
20260504021312 43 257 1.0 3.0 0.00 0.00 0.00 70 1013.0
20260504020812 43 257 1.0 3.0 0.00 0.00 0.00 71 1012.9
20260504020312 44 257 1.0 3.0 0.00 0.00 0.00 66 1012.9
20260504015812 45 257 1.0 3.0 0.00 0.00 0.00 63 1013.0
20260504014812 45 257 1.0 4.0 0.00 0.00 0.00 68 1012.7
20260504014312 45 276 2.0 6.0 0.00 0.00 0.00 66 1012.7
20260504013812 46 276 1.0 6.0 0.00 0.00 0.00 63 1012.7
20260504013312 45 280 0.0 4.0 0.00 0.00 0.00 64 1012.7
20260504012812 45 280 1.0 4.0 0.00 0.00 0.00 64 1012.6
20260504012312 45 280 2.0 4.0 0.00 0.00 0.00 65 1012.7
20260504011812 45 280 1.0 4.0 0.00 0.00 0.00 65 1012.7
20260504011312 45 325 2.0 4.0 0.00 0.00 0.00 64 1012.6
20260504010312 46 201 1.0 3.0 0.00 0.00 0.00 59 1012.5
20260504005812 46 202 1.0 4.0 0.00 0.00 0.00 60 1012.5
20260504005312 46 202 3.0 4.0 0.00 0.00 0.00 60 1012.3
20260504004312 47 270 0.0 2.0 0.00 0.00 0.00 61 1012.3
20260504003312 50 270 1.0 6.0 0.00 0.00 0.00 52 1012.1
20260504002812 51 284 3.0 6.0 0.00 0.00 0.00 52 1012.2
20260504002312 51 216 2.0 4.0 0.00 0.00 0.00 50 1012.1
20260504001812 51 155 2.0 4.0 0.00 0.00 0.00 49 1012.0
20260504001312 52 223 3.0 9.0 0.00 0.00 0.00 48 1012.0
20260504000812 53 314 1.0 9.0 0.00 0.00 0.00 46 1011.9
20260504000312 53 326 1.0 8.0 0.00 0.00 0.00 44 1011.8
20260503235812 53 271 2.0 15.0 0.00 0.00 0.00 44 1011.9
20260503235312 52 211 7.0 15.0 0.00 0.00 0.00 49 1011.8
20260503234812 53 270 3.0 9.0 0.00 0.00 0.00 44 1011.7
20260503234312 54 230 2.0 9.0 0.00 0.00 0.00 40 1011.7
20260503233312 55 303 4.0 9.0 0.00 0.00 0.00 39 1011.7
20260503232812 55 290 4.0 9.0 0.00 0.00 0.00 38 1011.7
20260503232312 56 218 2.0 6.0 0.00 0.00 0.00 35 1011.7
20260503231812 56 230 0.0 11.0 0.00 0.00 0.00 37 1011.7
20260503231312 56 207 1.0 11.0 0.00 0.00 0.00 35 1011.5
20260503230812 56 294 5.0 16.0 0.00 0.00 0.00 37 1011.6
20260503230312 56 339 3.0 16.0 0.00 0.00 0.00 36 1011.5
20260503225312 57 246 8.0 9.0 0.00 0.00 0.00 36 1011.5
20260503224812 57 329 1.0 10.0 0.00 0.00 0.00 37 1011.4
20260503224312 57 248 5.0 17.0 0.00 0.00 0.00 34 1011.4
20260503223312 57 268 2.0 11.0 0.00 0.00 0.00 37 1011.3
20260503221812 56 266 11.0 14.0 0.00 0.00 0.00 34 1011.4
20260503221312 57 286 4.0 11.0 0.00 0.00 0.00 38 1011.4
20260503220812 57 238 5.0 7.0 0.00 0.00 0.00 35 1011.4
20260503220312 57 271 2.0 9.0 0.00 0.00 0.00 33 1011.5
20260503215812 57 269 6.0 17.0 0.00 0.00 0.00 36 1011.5
20260503215312 57 294 4.0 17.0 0.00 0.00 0.00 31 1011.5
20260503214812 58 234 13.0 16.0 0.00 0.00 0.00 33 1011.5
20260503214312 58 279 3.0 12.0 0.00 0.00 0.00 31 1011.4
20260503213812 58 17 1.0 16.0 0.00 0.00 0.00 31 1011.4
20260503213312 59 221 3.0 23.0 0.00 0.00 0.00 30 1011.4
20260503212812 58 259 14.0 23.0 0.00 0.00 0.00 32 1011.4
20260503211812 59 257 11.0 16.0 0.00 0.00 0.00 30 1011.2
20260503211312 59 360 15.0 15.0 0.00 0.00 0.00 32 1011.3
20260503210812 60 360 3.0 14.0 0.00 0.00 0.00 33 1011.3
20260503210312 59 258 2.0 18.0 0.00 0.00 0.00 32 1011.3
20260503205812 60 252 2.0 18.0 0.00 0.00 0.00 30 1011.2
20260503205312 59 5 4.0 10.0 0.00 0.00 0.00 31 1011.3
20260503204812 59 329 4.0 17.0 0.00 0.00 0.00 30 1011.4
20260503204312 59 273 4.0 17.0 0.00 0.00 0.00 30 1011.3
20260503203812 59 317 2.0 17.0 0.00 0.00 0.00 30 1011.4
20260503203312 59 285 4.0 14.0 0.00 0.00 0.00 30 1011.3
20260503202812 60 242 12.0 15.0 0.00 0.00 0.00 35 1011.5
20260503202312 60 275 7.0 15.0 0.00 0.00 0.00 33 1011.6
20260503200812 60 300 7.0 18.0 0.00 0.00 0.00 31 1011.7
20260503200312 59 44 2.0 18.0 0.00 0.00 0.00 33 1011.6
20260503195812 59 200 5.0 14.0 0.00 0.00 0.00 30 1011.7
20260503194812 58 286 6.0 20.0 0.00 0.00 0.00 35 1011.7
20260503193812 58 355 6.0 19.0 0.00 0.00 0.00 33 1012.0
20260503193312 58 66 9.0 19.0 0.00 0.00 0.00 32 1012.1
20260503192812 58 25 15.0 19.0 0.00 0.00 0.00 29 1012.3
20260503191812 59 286 7.0 20.0 0.00 0.00 0.00 36 1012.2
20260503191312 57 222 6.0 21.0 0.00 0.00 0.00 31 1012.3
20260503190812 58 319 9.0 21.0 0.00 0.00 0.00 40 1012.4
20260503185812 56 350 6.0 20.0 0.00 0.00 0.00 32 1012.4
20260503185312 58 292 4.0 20.0 0.00 0.00 0.00 33 1012.3
20260503184812 58 263 7.0 15.0 0.00 0.00 0.00 30 1012.4
20260503184312 58 306 3.0 15.0 0.00 0.00 0.00 37 1012.5
20260503183812 57 11 9.0 22.0 0.00 0.00 0.00 32 1012.6
20260503183312 57 5 13.0 22.0 0.00 0.00 0.00 35 1012.6
20260503182812 58 20 7.0 20.0 0.00 0.00 0.00 36 1012.6
20260503181812 57 265 13.0 18.0 0.00 0.00 0.00 36 1012.6
20260503181312 54 334 6.0 18.0 0.00 0.00 0.00 34 1012.6
20260503180812 56 349 5.0 18.0 0.00 0.00 0.00 31 1012.4
20260503180312 56 229 13.0 18.0 0.00 0.00 0.00 35 1012.5
20260503175312 56 355 4.0 19.0 0.00 0.00 0.00 33 1012.7
20260503174812 56 258 7.0 23.0 0.00 0.00 0.00 32 1012.7
20260503174312 56 5 8.0 23.0 0.00 0.00 0.00 32 1012.8